Regional Weather Roundup
Issued by NWS Kansas City/Pleasant Hill, MO

Home | Current Version | Previous Version | Graphics & Text | Print | Product List | Glossary Off
Versions: 1 2 3 4 5 6 7 8 9 10 11 12 13 14 15 16 17 18 19 20 21 22 23 24 25 26 27 28 29 30 31 32 33 34 35 36 37 38 39 40 41 42 43 44 45 46 47 48 49 50

000
ASUS43 KEAX 290210
RWREAX

WEATHER ROUNDUP FOR EASTERN KANSAS AND NORTHWEST MISSOURI
NATIONAL WEATHER SERVICE KANSAS CITY/PLEASANT HILL MO
800 PM CST FRI NOV 28 2014

KSZ040-057-103>105-MOZ028-029-037-043-290300-
...KANSAS CITY METROPOLITAN AREA...

CITY           SKY/WX    TMP DP  RH WIND       PRES   REMARKS
K.C. INTL      CLOUDY    53  36  52 S15       29.76S
K.C. DOWNTOWN  MOCLDY    56  35  45 SW13      29.77S
LEES SUMMIT    PTCLDY    53  35  50 S15G23    29.79F
OLATHE - IXD   CLOUDY    51  36  56 S14       29.79F
OLATHE - OJC   MOCLDY    54  36  50 S16G22    29.78F
LAWRENCE       CLOUDY    53  35  50 S7        29.78S

$$

MOZ001>008-011>017-020>025-030>033-038>040-044>046-053-054-290300-
...NORTHERN AND CENTRAL MISSOURI...

CITY           SKY/WX    TMP DP  RH WIND       PRES   REMARKS
ST. JOSEPH     MOCLDY    49  35  58 S9        29.73F
MOSBY          MOCLDY    52  34  50 S6        29.77F
WARRENSBURG    PTCLDY    52  36  54 S14G20    29.80F
WHITEMAN AFB   PTCLDY    52  37  55 SW14      29.80F
CLINTON        PTCLDY    52  37  58 S8        29.85S
SEDALIA        PTCLDY    50  36  58 S10       29.82F
WARSAW         NOT AVBL
MARSHALL       MOCLDY    54  39  58 S10G16    29.80F
CHILLICOTHE      N/A     43  33  68 S6        29.78F
KIRKSVILLE     CLEAR     38  32  79 S7        29.79F WCI  33

$$

MOZ041-047>049-056>058-063>065-088>090-097-290300-
...EASTERN AND SOUTHERN MISSOURI...

CITY           SKY/WX    TMP DP  RH WIND       PRES   REMARKS
ST. LOUIS INTL CLEAR     46  33  60 S12       29.92F
SPIRIT OF STL  CLEAR     46  32  58 S8        29.91S
COLUMBIA       CLEAR     49  35  58 S10       29.84F
JEFFERSON CITY CLEAR     49  33  54 SE7       29.86F
MEXICO         CLEAR     48  39  71 S10       29.83F
ROLLA          CLEAR     47  33  58 S18       29.87S
LEBANON        PTCLDY    48  34  57 S10       29.90F
OSAGE BEACH    CLEAR     50  34  53 S8        29.87F
SPRINGFIELD    PTCLDY    50  35  56 S9        29.90R
BRANSON        PTCLDY    48  36  61 S5        29.94S
JOPLIN         CLOUDY    56  38  50 S18G26    29.88F
WEST PLAINS    CLEAR     46  32  58 S9        29.97F

$$

IAZ060-094-KSZ022-034>040-054-083-096-NEZ052-066-093-290300-
...KANSAS...SOUTHEAST NEBRASKA AND IOWA...

CITY           SKY/WX    TMP DP  RH WIND       PRES   REMARKS
TOPEKA         CLOUDY    55  35  47 S7        29.77F
MANHATTAN      CLOUDY    53  36  52 SW12      29.75S
EMPORIA        CLOUDY    50  36  58 S9        29.79F
CHANUTE        CLOUDY    54  40  59 S16       29.83F
WICHITA        PTCLDY    49  37  63 S12       29.79F
OMAHA          CLOUDY    43  32  65 S9        29.65F
LINCOLN        MOCLDY    50  31  48 SW5       29.65F
FALLS CITY     MOCLDY    52  34  50 S9        29.69F
LAMONI         MOCLDY    41  32  70 S9        29.73F
DES MOINES     PTCLDY    37  30  75 S10       29.72F WCI  30

$$



USA.gov is the U.S. government's official web portal to all federal, state and local government web resources and services.